map of CAI home
CAI - Airport
Location
City:  Cairo, Al Qahirah (Cairo), Egypt
Name:Cairo International Airport
ICAO:HECA
IATA:CAI

Details
Type:Airport (Aerodrome, Airfield)
Use:Public/Civil, International (customs port of entry)
Latitude:3007'19"N (30.121944)
Longitude:3124'20"E (31.405556)
Datum:WGS 1984
Elevation:382 ft (116 m)
Variation:4.34E (WMM2015 magnetic declination)
0.09 annual change
Runways:3
Longest:13120 × 197 ft (3999 × 60 m), paved

Time
Time Zone:UTC+2
Local Time:

Weather
METAR:HECA 291430Z 21013KT CAVOK 32/02 Q1012 NOSIG
TAF:HECA 291100Z 2912/3018 26006KT 9999 FEW025
TEMPO 3005/3008 VRB03KT 6000 NSC PROB30
TEMPO 3006/3008 4000 HZ

Related Locations
Nearby:
Farthest:RVV: 11997 mi / 19307 km
Raivavae, Tubuai Islands, Austral Islands, PF

Find:

   beyond  
but within

Other Information
Maps:
NOTAMs:
Links:
Sources:

  
flag of Egypt
flag of Al Qahirah (Cairo)
  

Airport Diagram

Airport diagram for CAI

Larger airport diagram (OBSOLETE) from NGA

Sectional Chart

Flight Planning
at skyvector.com

Satellite Image

Google Maps Satellite view

 

Copyright © 2004-2017 Karl L. Swartz. All rights reserved.
The Great Circle Mapper name and logo are trademarks of the Great Circle Mapper.
All other trademarks mentioned herein belong to their respective owners.
Please see credits for attibutions and further copyright information.

  Follow gcmap on Facebook Follow gcmap on Twitter Follow gcmap on Google+ GCmap on LinkedIn

hCard Microformat

Geo Microformat